www.pogodaiklimat.ru

Погода и климат >> Архив погоды >> Сенегал >> Подор


ПОГОДА в Подоре

  • Прогноз погоды в Подоре
  • Монитор погоды в Подоре

АРХИВ ПОГОДЫ в Подоре

Время (UTC), дата Ветер
(напр.,м/с)
 
Видим.   Явления Облачность Т
(С)
Тd
(С)
f
(%)
Тe
(С)
Тes
(С)
Комфортность P
(гПа)
Po
(гПа)
Тmin
(С)
Tmax
(С)
R
(мм)
R24
(мм)
S
(см)
06 11.06 ЮЗ 1 10 км ясно +25.2 +18.0 64 +30 +30 душно 1010.5 1009.7 +24.6
12 11.06 ЮЗ 1 10 км ясно +34.1 +18.9 41 +39 +63 опасность
солнечного
удара
1010.9 1010.1
18 11.06 ЮЗ 1 10 км ясно +40.6 +14.1 21 +41 +44 опасность
перегрева
1007.3 1006.5 +42.0
00 12.06 ЮЗ 2 10 км 1/0
[Ac trans]
+27.3 +15.2 48 +30 +30 душно 1011.3 1010.5
06 12.06 ЮЗ 1 10 км 4/0
[Ci sp]
+21.7 +17.2 76 +26 +26 душно 1010.3 1009.5 +21.2
12 12.06 штиль 0 10 км 6/0
[Ci sp]
+33.5 +12.7 28 +34 +58 опасность
солнечного
удара
1011.4 1010.6
18 12.06 З 1 10 км 8/0
[Ci sp]
+40.0 +11.4 18 +39 +41 очень
жарко
1008.5 1007.7 +40.5
00 13.06 З 1 10 км ясно +26.6 +16.3 53 +30 +30 душно 1013.5 1012.7
06 13.06 З 1 10 км 3/0
[Ac trans]
+22.0 +17.2 74 +26 +26 душно 1013.0 1012.2 +21.5
12 13.06 штиль 0 10 км ясно +33.6 +18.2 40 +38 +66 опасность
солнечного
удара
1014.3 1013.5
18 13.06 СЗ 1 10 км ясно +39.0 +10.7 18 +38 +41 очень
жарко
1010.7 1009.9 +40.0
21 13.06 З 1 10 км ясно +32.5 +13.2 31 +33 +33 жарко 1012.6 1011.8
00 14.06 ЮЗ 1 10 км 1/0
[Ac cast]
+27.0 +13.4 43 +29 +29 жарко 1014.0 1013.2
03 14.06 СЗ 1 10 км 6/0
[Ci sp]
+24.0 +14.5 55 +27 +27 жарко 1013.5 1012.7
06 14.06 ЮЗ 1 10 км 6/0
[Ci sp]
+22.3 +14.8 63 +26 +26 жарко 1013.7 1012.9 +22.0
09 14.06 ЮЗ 1 10 км 8/0
[Ci sp]
+24.5 +15.5 57 +27 +34 жарко 1015.0 1014.2
12 14.06 З 1 10 км 8/0
[Ci sp]
+34.0 +13.7 29 +35 +55 опасность
солнечного
удара
1015.1 1014.3
15 14.06 штиль 0 10 км 8/0
[Ci sp]
+39.9 +12.5 20 +40 +59 опасность
солнечного
удара
1012.5 1011.7
18 14.06 штиль 0 10 км 6/0
[Ci sp]
+40.8 +11.8 18 +40 +43 очень
жарко
1011.3 1010.5 +41.5
21 14.06 З 1 10 км ясно +34.2 +13.0 28 +35 +35 очень
жарко
1013.1 1012.3
00 15.06 З 1 10 км 1/0
[Ac trans]
+28.6 +14.5 42 +31 +31 жарко 1014.2 1013.4
03 15.06 З 1 10 км 3/0
[Ac trans]
+25.5 +15.5 54 +29 +29 душно 1013.4 1012.6
06 15.06 З 1 10 км 3/0
[Ac trans]
+24.0 +16.4 62 +27 +27 жарко 1012.8 1012.0 +23.5
09 15.06 С 1 10 км 8/0
[Ac As]
+28.9 +15.1 43 +31 +35 жарко 1014.3 1013.5
12 15.06 С 1 10 км 6/0
[Ac trans]
+39.1 +12.0 20 +39 +54 опасность
солнечного
удара
1013.3 1012.5
15 15.06 СВ 2 10 км 4/0
[Ci sp]
+43.5 +5.8 10 +41 +56 опасность
перегрева
1010.8 1010.0
18 15.06 СВ 1 10 км 8/0
[Ac cast Ci sp]
+43.5 +5.1 10 +41 +43 опасность
перегрева
1009.4 1008.6 +44.5
21 15.06 С 1 10 км 6/0
[Ci sp]
+38.0 +7.1 15 +36 +36 очень
жарко
1010.3 1009.5
00 16.06 ЮЗ 1 10 км 5/0
[Ac cast Ci sp]
+34.0 +11.7 26 +34 +34 очень
жарко
1011.7 1010.9
03 16.06 СВ 1 10 км 9/0
[Ac As]
+34.0 +11.7 26 +34 +34 очень
жарко
1010.7 1009.9
06 16.06 СВ 1 10 км 5/0
[Ac cast Ci sp]
+32.6 +10.7 26 +32 +32 жарко 1011.2 1010.4 +32.0
09 16.06 СВ 1 10 км 5/0
[Ci sp]
+35.0 +8.3 19 +33 +40 жарко 1012.3 1011.5
12 16.06 СВ 1 10 км 1/0
[Ac trans]
+43.0 +5.7 11 +40 +63 опасность
солнечного
удара
1012.3 1011.5
15 16.06 штиль 0 10 км 1/1 400 м
[Sc]
+46.8 +9.2 11 +45 +66 опасность
перегрева
1009.9 1009.1
18 16.06 штиль 0 10 км 8/0
[Ac cast]
+45.2 +16.6 19 +47 +48 опасность
перегрева
1008.6 1007.8 +47.8
21 16.06 СВ 1 10 км 6/0
[Ac cast]
+40.5 +15.8 24 +42 +42 опасность
перегрева
1010.5 1009.7
00 17.06 Ю 1 10 км 9/0
[Ac cast]
+38.0 +14.1 24 +38 +38 очень
жарко
1011.5 1010.7
03 17.06 ЮЗ 1 10 км 8/0
[Ac cast]
+36.6 +14.2 26 +37 +37 очень
жарко
1010.6 1009.8
06 17.06 С 2 10 км 4/0
[Ac trans]
+34.0 +8.5 21 +33 +33 жарко 1010.2 1009.4 +33.0
09 17.06 СВ 1 10 км ясно +35.6 +10.5 22 +35 +43 очень
жарко
1011.2 1010.4
12 17.06 СВ 1 3000 м пыль ясно +42.3 +9.2 14 +40 +65 опасность
солнечного
удара
1011.5 1010.7
15 17.06 В 1 1300 м пыль ясно +44.4 +9.7 13 +43 +63 опасность
перегрева
1008.9 1008.1
18 17.06 СВ 2 1400 м пыль ясно +44.0 +8.8 12 +42 +45 опасность
перегрева
1007.7 1006.9 +45.4
21 17.06 СВ 1 6000 м ясно +40.0 +8.2 15 +38 +38 очень
жарко
1008.7 1007.9
00 18.06 СВ 1 10 км 4/0
[Ac trans]
+37.6 +8.2 17 +36 +36 очень
жарко
1009.8 1009.0

 

Местоположение метеостанции Подор (Сенегал): широта 16.65 долгота -14.96 высота над уровнем моря 7 м.

В архиве по умолчанию представлена погода в Подоре за последнюю неделю. Архивные данные за месяц целиком и за предыдущие месяцы, начиная с января 2011 года, Вы можете получить, выбрав интересующий диапазон дат из раскрывающегося списка и нажав кнопку "Ввод!".


*Определитесь, кто Вы:
робот инопланетянин человек

Внимание! Время в таблицах - всемирное. Для получения местного времени необходимо прибавить поправку, которая равна 0 ч.

Смотрите также архив погоды в соседних городах и на ближайших метеорологических станциях:

Погода в Росо (Мавритания) (92 км)
Погода в Бутилимите (Мавритания) (102 км)
Погода в Лингере (Сенегал) (142 км)
Погода в Каэди (Мавритания) (164 км)
Погода в Сент-Луисе (Сенегал) (172 км)
Погода в Нуакшоте (Мавритания) (192 км)
Погода в Матаме (Сенегал) (214 км)
Погода в Диурбеле (Сенегал) (261 км)
Погода в Каолаке (Сенегал) (304 км)
Погода в Кауере (Гамбия) (329 км)

Пояснения к столбцам:

Ветер - указаны скорость ветра в м/с - средняя за 10 мин, порывы в срок и между сроками (в фигурных скобках) и направление, откуда дует ветер: С - северный, СВ - северо-восточный, В - восточный, ЮВ - юго-восточный, Ю - южный, ЮЗ - юго-западный, З - западный, СЗ - северо-западный.
Видимость - горизонтальная дальность видимости в метрах или километрах. При видимости от 1 до 10 км при отсутствии осадков обычно наблюдается дымка, при ухудшении видимости до 1 км и менее - туман. В сухую погоду видимость может ухудшаться дымом, пылью или мглою.
Явления - указаны атмосферные явления, наблюдавшиеся в срок или в последний час перед сроком; фигурными скобками обозначены явления, наблюдавшиеся между сроками (за 1-3 часа до срока); квадратными скобками обозначены град или гололедные отложения с указанием их диаметра в мм.
Облачность - указаны через наклонную черту общая и нижняя облачность в баллах и высота нижней границы облаков в метрах; квадратными скобками обозначены формы облаков: Ci - перистые, Cs - перисто-слоистые, Cc - перисто-кучевые, Ac - высококучевые, As - высокослоистые, Sc - слоисто-кучевые, Ns - слоисто-дождевые, Cu - кучевые, Cb - кучево-дождевые. Подробнее классификацию облаков см. в Атласе облаков (PDF).
T - Температура воздуха - температура, измеренная на высоте 2 м над землей.
Td - Температура точки росы - температура, при понижении до которой содержащийся в воздухе водяной пар достигнет насыщения.
f - Относительная влажность воздуха - влажноcть воздуха, измеренная на высоте 2 м над землей.
Te - Эффективная температура - температура, которую ощущает одетый по сезону человек в тени. Характеристика душности погоды. При расчете учитывается влияние влажности воздуха и скорости ветра на теплоощущения человека.
Tes - Эффективная температура на солнце - температура, которую ощущает человек, с поправкой на солнечный нагрев. Характеристика знойности погоды. Зависит от высоты солнца над горизонтом, облачности и скорости ветра. Ночью, в пасмурную погоду, а также при ветре 12 м/с и более поправка равна нулю.
P - Атмосферное давление - приведенное к уровню моря атмосферное давление.
Po - Атмосферное давление - измеренное на уровне метеостанции атмосферное давление.
Tmin - Минимальная температура - минимум температуры воздуха на высоте 2 м над землей.
Tmax - Максимальная температура - максимум температуры воздуха на высоте 2 м над землей.
R - Количество осадков - Количество выпавших осадков за период времени, мм. При наведении курсора мыши на число - период времени, за который выпало указанное количество осадков.
R24 - Количество осадков - Количество выпавших осадков за 24 часа, мм.
S - Снежный покров - Высота снежного покрова, см. При наведении курсора мыши на число - состояние снежного покрова и степень покрытия местности в баллах.